Regional Weather Roundup
Issued by NWS Mobile, AL

Home | Current Version | Previous Version | Text Only | Print | Product List | Glossary On
Versions: 1 2 3 4 5 6 7 8 9 10 11 12 13 14 15 16 17 18 19 20 21 22 23 24 25 26 27 28 29 30 31 32 33 34 35 36 37 38 39 40 41 42 43 44 45 46 47 48 49 50
000
ASUS44 KMOB 290912
RWRMOB
REGIONAL WEATHER ROUNDUP
NATIONAL WEATHER SERVICE MOBILE AL
400 AM CDT FRI APR 29 2016

NOTE: "FAIR" INDICATES FEW OR NO CLOUDS BELOW 12,000 FEET WITH NO
      SIGNIFICANT WEATHER AND/OR OBSTRUCTIONS TO VISIBILITY.

  * THESE STATIONS ARE PART OF THE UNIVERSITY OF SOUTH ALABAMA
    MESONET AND ARE NOT UNDER NWS OR FAA QUALITY CONTROL.

ALZ061>064-291000-
COASTAL ALABAMA

CITY           SKY/WX    TMP DP  RH WIND       PRES   REMARKS
MOBILE REG APT CLOUDY    67  67 100 CALM      29.97S
BROOKLEY FIELD CLOUDY    67  67 100 CALM      29.98S
USA CAMPUS*    NOT AVBL
DOG RIVER*     NOT AVBL


CITY           SKY/WX    TMP DP  RH WIND       PRES   REMARKS
MOUNT VERNON*  NOT AVBL
SARALAND*      NOT AVBL
BAY MINETTE*   NOT AVBL
LOXLEY*        NOT AVBL
ROBERTSDALE*   NOT AVBL
FAIRHOPE*      NOT AVBL
ELBERTA*       NOT AVBL
FOLEY*         NOT AVBL
GRAND BAY*     NOT AVBL
DAUPHIN ISLND* NOT AVBL
BON SCOUR NWR* NOT AVBL
GULF SHORES    FOG       63  63 100 W6        29.97R VSB 1/2

$$

ALZ051>060-291000-
INTERIOR SOUTHWEST AND SOUTH CENTRAL ALABAMA

CITY           SKY/WX    TMP DP  RH WIND       PRES   REMARKS
GREENVILLE     FOG       64  61  90 CALM      29.98R VSB 1/2
EVERGREEN      PTCLDY    63  62  97 CALM      29.99S FOG
CASTLEBERRY*   NOT AVBL
ATMORE*        NOT AVBL
DIXIE*         NOT AVBL
ANDALUSIA/OPP  CLEAR     68  63  84 CALM      29.99R HAZE
ANDALUSIA*     NOT AVBL
FLORALA APT    PTCLDY    63  61  93 CALM      30.00S
FLORALA*       NOT AVBL

$$

FLZ001>006-291000-
WESTERN FLORIDA PANHANDLE

CITY           SKY/WX    TMP DP  RH WIND       PRES   REMARKS
PENSACOLA      PTCLDY    67  65  93 CALM      29.97R
NAS PENSACOLA  NOT AVBL
MILTON         CLEAR     63  63 100 CALM      29.98R
WHTNG S FIELD  CLEAR     66  64  93 CALM      29.98R


CITY           SKY/WX    TMP DP  RH WIND       PRES   REMARKS
WALNUT HILL*   NOT AVBL
JAY*           NOT AVBL
DUKE FIELD     CLEAR     63  62  96 NE2       29.97R FOG
CRESTVIEW      PTCLDY    61  60  97 NE3       29.99S FOG
VALPARAISO     PTCLDY    64  62  93 CALM      29.97R
DESTIN         PTCLDY    70  68  93 CALM      29.97R

$$

MSZ076-079-291000-
INTERIOR SOUTHEAST MISSISSIPPI

CITY           SKY/WX    TMP DP  RH WIND       PRES   REMARKS
LEAKESVILLE*   NOT AVBL
AGRICOLA*      NOT AVBL

$$

MARINE OBSERVATIONS

STATION/POSITION TIME  TEMP    WIND        PRES    WAVE
                       AIR SEA DIR/SP/G            HT/PER
                 (UTC) (F)     (DEG/KT/KT) (MB)    (FT/S)
PASCAGOULA       0800   72     110/  3/  4 1013.9R
PETIT BOIS ISLND 0706   75     130/  7/  9 1014.5F
GRAND BAY        0700   74     120/  5     1016.0S
KATRINA CUT      0800   74     120/  5       N/A
CEDAR POINT      0800   74     110/  4     1014.2R
E DAUPHIN ISLAND 0800   74     110/  3/  4 1014.1R
MIDDLE BAY LIGHT 0800   74     110/  5     1013.9R
USCG MOBILE BAY  0800   70 75     CALM     1015.2R
STATE DOCKS      0800   69 72              1014.6R
MEAHER PARK      0800   69        CALM     1014.2R
WEEKS BAY        0700   65                   N/A
FORT MORGAN      0800   74     130/  7/  7 1014.0R
12 S ORANGE BCH  0850   74 73  110/  4/  4 1014.0R   2/ 6
PENSACOLA BAY    0800   74      10/  1/  1 1014.7R
64 S DAUPHIN ISL 0800   74 73  110/  6/  8 1014.1R

$$

SELECTED LOCATIONS ACROSS THE REGION

CITY           SKY/WX    TMP DP  RH WIND       PRES   REMARKS
NEW ORLEANS    PTCLDY    74  70  87 E6        29.89F
GULFPORT       CLEAR     69  67  93 CALM      29.93F
PASCAGOULA AP  FOG       63  62  97 CALM      29.95F VSB 1
PASCAGOULA*    NOT AVBL
HATTIESBURG    PTCLDY    69  66  90 SE3       29.96S
LAUREL         CLOUDY    68  64  88 CALM      29.96S
MERIDIAN       CLEAR     64  62  93 CALM      29.96S
JACKSON        CLOUDY    72  69  90 SE6       29.92S
MONTGOMERY     FOG       67  64  90 CALM      29.98S VSB 1/2
TROY           CLEAR     64  63  96 CALM      30.00R FOG
KINSTON*       NOT AVBL
GENEVA*        NOT AVBL
ASHFORD*       NOT AVBL
DOTHAN         CLEAR     66  64  93 CALM      30.02R
PANAMA CITY    FOG       65  65 100 CALM      29.97S VSB 1/4

$$




USA.gov is the U.S. government's official web portal to all federal, state and local government web resources and services.